Regional Weather Roundup
Issued by NWS

Home | Current Version | Previous Version | Graphics & Text | Print | Product List | Glossary On
Versions: 1 2 3 4 5 6 7 8 9 10 11 12 13 14 15 16 17 18 19 20 21 22 23 24 25 26 27 28 29 30 31 32 33 34 35 36 37 38 39 40 41 42 43 44 45 46 47 48 49 50
000
ASUS43 KLMK 282002
RWRKY
KENTUCKY REGIONAL WEATHER ROUNDUP
NATIONAL WEATHER SERVICE LOUISVILLE KY
300 PM EST WED JAN 28 2015

NOTE "FAIR" INDICATES FEW OR NO CLOUDS BELOW 12,000 FEET
WITH NO SIGNIFICANT WEATHER AND/OR OBSTRUCTIONS TO VISIBILITY.

KYZ001>023-026-027-061>063-070>075-282100-
WESTERN AND SOUTH CENTRAL KENTUCKY

CITY           SKY/WX    TMP DP  RH WIND       PRES   REMARKS
PADUCAH        SUNNY     47  30  51 S7        30.20F
HENDERSON      SUNNY     43  21  42 S13       30.22F
OWENSBORO      SUNNY     43  19  38 S15       30.24F
HOPKINSVILLE   SUNNY     46  23  40 SE8       30.22F
BOWLING GREEN  SUNNY     45  17  32 S6        30.26F
GLASGOW        NOT AVBL
$$

KYZ024-025-028>034-038-045-046-053-282100-
NORTH CENTRAL KENTUCKY

CITY           SKY/WX    TMP DP  RH WIND       PRES   REMARKS
LOUISVILLE/SDF MOSUNNY   40  13  33 SE6       30.27F
LOUISVILLE/LOU SUNNY     38  11  32 SE9       30.28F WCI  31
FORT KNOX      SUNNY     39  12  32 E9        30.24F WCI  33
$$

KYZ035>037-039>044-047>052-055>060-089>105-282100-
NORTHEAST KENTUCKY

CITY           SKY/WX    TMP DP  RH WIND       PRES   REMARKS
LEXINGTON      SUNNY     35  18  49 SE7       30.28F WCI  29
COVINGTON      MOSUNNY   35  18  49 SE9       30.26F WCI  28
FRANKFORT      SUNNY     36  18  48 SE9       30.26F WCI  29
$$

KYZ054-064>069-076>088-106>120-282100-
SOUTHEAST KENTUCKY

CITY           SKY/WX    TMP DP  RH WIND       PRES   REMARKS
JACKSON        SUNNY     35  17  47 CALM      30.28F
LONDON         SUNNY     37  17  44 MISG      30.27F
SOMERSET       NOT AVBL
MIDDLESBORO    NOT AVBL
MONTICELLO     CLEAR     42  13  31 E8        30.29F
$$




USA.gov is the U.S. government's official web portal to all federal, state and local government web resources and services.